When you browse on this site, cookies collect data to enhance your experience and personalize the content and advertising you see.
Visit our Privacy Policy to learn more. By continuing to use the site, you agree to this use of cookies and data.
  • In United Kingdom
  • List of Countries
  • For 7 days
  • Water Temperature
  • Satellite Maps
  • Weather Map
  • Weather Widgets
  • user-avatar
    Login

    Hourly Weather Gamboma

    Today, 25 April, Thursday

    Time Temperature Precipitation Wind Pressure Humidity
    00:00 +30°C° 0 mm 1 mps 728 mmHg 63%
    01:00 +30°C° 0 mm 1 mps 728 mmHg 65%
    02:00 +29°C° 0 mm 1 mps 728 mmHg 67%
    03:00 +29°C° 0 mm 2 mps 728 mmHg 68%
    04:00 +28°C° 0 mm 2 mps 728 mmHg 70%
    05:00 +28°C° 0.1 mm 2 mps 728 mmHg 72%
    06:00 +28°C° 0.1 mm 2 mps 729 mmHg 74%
    07:00 +28°C° 0.1 mm 3 mps 729 mmHg 76%
    08:00 +31°C° 0 mm 3 mps 729 mmHg 67%
    09:00 +34°C° 0 mm 2 mps 729 mmHg 58%
    10:00 +36°C° 0 mm 2 mps 730 mmHg 49%
    11:00 +38°C° 0 mm 2 mps 729 mmHg 44%
    12:00 +39°C° 0 mm 2 mps 728 mmHg 40%
    13:00 +40°C° 0 mm 1 mps 728 mmHg 35%
    14:00 +40°C° 0 mm 1 mps 727 mmHg 37%
    15:00 +39°C° 0 mm 2 mps 726 mmHg 39%
    16:00 +38°C° 0 mm 2 mps 726 mmHg 41%
    17:00 +36°C° 0 mm 2 mps 726 mmHg 47%
    18:00 +35°C° 0 mm 2 mps 726 mmHg 53%
    19:00 +32°C° 0 mm 2 mps 726 mmHg 59%
    20:00 +30°C° 0.8 mm 2 mps 726 mmHg 67%
    21:00 +29°C° 0.8 mm 2 mps 727 mmHg 74%
    22:00 +27°C° 0.8 mm 2 mps 727 mmHg 82%
    23:00 +27°C° 0 mm 2 mps 727 mmHg 82%

    Tomorrow, 26 April, Friday

    Time Temperature Precipitation Wind Pressure Humidity
    00:00 +27°C° 0 mm 2 mps 727 mmHg 82%
    01:00 +27°C° 0 mm 2 mps 727 mmHg 82%
    02:00 +27°C° 0 mm 2 mps 727 mmHg 82%
    03:00 +27°C° 0 mm 2 mps 727 mmHg 83%
    04:00 +27°C° 0 mm 2 mps 727 mmHg 84%
    05:00 +27°C° 0 mm 2 mps 727 mmHg 84%
    06:00 +28°C° 0 mm 1 mps 728 mmHg 84%
    07:00 +28°C° 0 mm 1 mps 728 mmHg 83%
    08:00 +29°C° 0.4 mm 1 mps 729 mmHg 77%
    09:00 +31°C° 0.4 mm 1 mps 729 mmHg 70%
    10:00 +33°C° 0.4 mm 1 mps 730 mmHg 63%
    11:00 +34°C° 0.1 mm 1 mps 729 mmHg 58%
    12:00 +35°C° 0.1 mm 1 mps 728 mmHg 52%
    13:00 +36°C° 0.1 mm 1 mps 727 mmHg 46%
    14:00 +37°C° 0 mm 2 mps 727 mmHg 46%
    15:00 +37°C° 0 mm 2 mps 726 mmHg 46%
    16:00 +37°C° 0 mm 2 mps 725 mmHg 46%
    17:00 +35°C° 0 mm 2 mps 726 mmHg 50%
    18:00 +33°C° 0 mm 1 mps 726 mmHg 54%
    19:00 +31°C° 0 mm 1 mps 726 mmHg 59%
    20:00 +30°C° 0 mm 1 mps 726 mmHg 63%
    21:00 +29°C° 0 mm 1 mps 727 mmHg 67%
    22:00 +29°C° 0 mm 1 mps 727 mmHg 70%
    23:00 +28°C° 0 mm 1 mps 727 mmHg 74%

    Day after tomorrow, 27 April, Saturday

    Time Temperature Precipitation Wind Pressure Humidity
    00:00 +26°C° 0 mm 0 mps 727 mmHg 77%
    01:00 +25°C° 0 mm 0 mps 726 mmHg 80%
    02:00 +25°C° 0 mm 0 mps 726 mmHg 82%
    03:00 +27°C° 0 mm 1 mps 726 mmHg 84%
    04:00 +26°C° 0 mm 1 mps 726 mmHg 85%
    05:00 +27°C° 0 mm 1 mps 727 mmHg 84%
    06:00 +27°C° 0 mm 1 mps 727 mmHg 82%
    07:00 +27°C° 0 mm 1 mps 728 mmHg 80%
    08:00 +30°C° 0 mm 1 mps 728 mmHg 70%
    09:00 +32°C° 0 mm 2 mps 728 mmHg 60%
    10:00 +35°C° 0 mm 2 mps 729 mmHg 50%
    11:00 +36°C° 0 mm 2 mps 728 mmHg 46%
    12:00 +38°C° 0 mm 2 mps 727 mmHg 41%
    13:00 +39°C° 0 mm 2 mps 726 mmHg 36%
    14:00 +39°C° 0 mm 2 mps 726 mmHg 36%
    15:00 +39°C° 0 mm 2 mps 725 mmHg 36%
    16:00 +39°C° 0 mm 2 mps 724 mmHg 35%
    17:00 +37°C° 0 mm 2 mps 725 mmHg 41%
    18:00 +35°C° 0 mm 2 mps 725 mmHg 47%
    19:00 +31°C° 0 mm 1 mps 726 mmHg 52%
    20:00 +31°C° 0 mm 1 mps 726 mmHg 55%
    21:00 +30°C° 0 mm 1 mps 727 mmHg 58%
    22:00 +30°C° 0 mm 1 mps 727 mmHg 61%
    23:00 +29°C° 0 mm 1 mps 727 mmHg 63%

    28 April, Sunday

    Time Temperature Precipitation Wind Pressure Humidity
    00:00 +29°C° 0 mm 1 mps 726 mmHg 64%
    01:00 +28°C° 0 mm 1 mps 726 mmHg 65%
    02:00 +28°C° 0 mm 1 mps 726 mmHg 67%
    03:00 +28°C° 0 mm 1 mps 726 mmHg 68%
    04:00 +27°C° 0 mm 1 mps 725 mmHg 69%
    05:00 +28°C° 0 mm 1 mps 726 mmHg 70%
    06:00 +28°C° 0 mm 1 mps 727 mmHg 71%
    07:00 +28°C° 0 mm 1 mps 727 mmHg 72%
    08:00 +31°C° 0 mm 1 mps 728 mmHg 63%
    09:00 +34°C° 0 mm 1 mps 728 mmHg 55%
    10:00 +36°C° 0 mm 1 mps 728 mmHg 46%
    11:00 +39°C° 0 mm 1 mps 727 mmHg 42%
    12:00 +40°C° 0 mm 1 mps 726 mmHg 37%
    13:00 +41°C° 0 mm 1 mps 726 mmHg 33%
    14:00 +40°C° 0 mm 1 mps 725 mmHg 36%
    15:00 +35°C° 0 mm 0 mps 725 mmHg 40%
    16:00 +34°C° 0 mm 0 mps 724 mmHg 43%
    17:00 +35°C° 0 mm 1 mps 725 mmHg 45%
    18:00 +34°C° 0 mm 1 mps 726 mmHg 47%
    19:00 +33°C° 0 mm 1 mps 726 mmHg 49%
    20:00 +32°C° 0 mm 1 mps 727 mmHg 53%
    21:00 +31°C° 0 mm 2 mps 727 mmHg 56%
    22:00 +31°C° 0 mm 2 mps 727 mmHg 60%
    23:00 +30°C° 0 mm 2 mps 727 mmHg 64%

    29 April, Monday

    Time Temperature Precipitation Wind Pressure Humidity
    00:00 +29°C° 0 mm 3 mps 726 mmHg 69%
    01:00 +29°C° 0 mm 3 mps 726 mmHg 73%
    02:00 +28°C° 0.1 mm 3 mps 726 mmHg 76%
    03:00 +28°C° 0.1 mm 2 mps 726 mmHg 78%
    04:00 +27°C° 0.1 mm 2 mps 726 mmHg 81%
    05:00 +27°C° 1.3 mm 1 mps 727 mmHg 82%
    06:00 +27°C° 1.3 mm 1 mps 728 mmHg 83%
    07:00 +27°C° 1.3 mm 1 mps 729 mmHg 85%
    08:00 +29°C° 0.7 mm 2 mps 729 mmHg 78%
    09:00 +30°C° 0.7 mm 3 mps 729 mmHg 71%
    10:00 +33°C° 0.7 mm 3 mps 729 mmHg 64%
    11:00 +34°C° 0.3 mm 3 mps 729 mmHg 59%
    12:00 +36°C° 0.3 mm 3 mps 728 mmHg 53%
    13:00 +37°C° 0.3 mm 2 mps 727 mmHg 48%
    14:00 +36°C° 0.8 mm 2 mps 727 mmHg 52%
    15:00 +34°C° 0.8 mm 1 mps 727 mmHg 57%
    16:00 +32°C° 0.8 mm 1 mps 726 mmHg 61%
    17:00 +31°C° 4 mm 1 mps 727 mmHg 70%
    18:00 +29°C° 4 mm 1 mps 727 mmHg 79%
    19:00 +27°C° 4 mm 1 mps 727 mmHg 88%
    20:00 +27°C° 0 mm 1 mps 728 mmHg 88%
    21:00 +27°C° 0 mm 1 mps 728 mmHg 87%
    22:00 +27°C° 0 mm 1 mps 728 mmHg 86%
    23:00 +27°C° 0 mm 1 mps 728 mmHg 86%

    30 April, Tuesday

    Time Temperature Precipitation Wind Pressure Humidity
    00:00 +27°C° 0 mm 1 mps 728 mmHg 86%
    01:00 +27°C° 0 mm 1 mps 727 mmHg 86%
    02:00 +26°C° 0.1 mm 1 mps 728 mmHg 88%
    03:00 +26°C° 0.1 mm 1 mps 728 mmHg 89%
    04:00 +26°C° 0.1 mm 1 mps 728 mmHg 90%
    05:00 +26°C° 0 mm 1 mps 728 mmHg 89%
    06:00 +27°C° 0 mm 1 mps 729 mmHg 88%
    07:00 +27°C° 0 mm 1 mps 729 mmHg 87%
    08:00 +29°C° 0 mm 1 mps 729 mmHg 77%
    09:00 +31°C° 0 mm 2 mps 730 mmHg 67%
    10:00 +34°C° 0 mm 2 mps 730 mmHg 57%
    11:00 +35°C° 0 mm 2 mps 729 mmHg 53%
    12:00 +35°C° 0 mm 1 mps 728 mmHg 48%
    13:00 +36°C° 0 mm 1 mps 728 mmHg 43%
    14:00 +36°C° 0 mm 1 mps 727 mmHg 44%
    15:00 +36°C° 0 mm 1 mps 727 mmHg 45%
    16:00 +35°C° 0 mm 1 mps 727 mmHg 46%
    17:00 +33°C° 0 mm 1 mps 727 mmHg 55%
    18:00 +31°C° 0 mm 1 mps 727 mmHg 63%
    19:00 +29°C° 0 mm 1 mps 727 mmHg 72%
    20:00 +29°C° 0 mm 1 mps 727 mmHg 75%
    21:00 +28°C° 0 mm 1 mps 727 mmHg 77%
    22:00 +28°C° 0 mm 1 mps 727 mmHg 80%
    23:00 +28°C° 0 mm 1 mps 727 mmHg 79%
    Show more